Location: Atherton
(17.2661°S, 145.4859°E)
Time: 18:35:30
(UTC+10:00)

ACS3 Solar Sail - Pass Details

Date: 20 May 2025
Orbit: 920 x 1019 km, 97.5° (Epoch: 20 June)

Event Time Altitude Azimuth Distance (km) Brightness Sun altitude
Rises 04:12:27 0° 56° (ENE) 3,552 5.7 -33.9°
Reaches altitude 10° 04:16:18 10° 82° (E) 2,626 4.9 -33.0°
Maximum altitude 04:18:54 13° 109° (ESE) 2,412 4.4 -32.4°
Drops below altitude 10° 04:21:31 10° 136° (SE) 2,654 4.4 -31.8°
Sets 04:25:26 0° 161° (SSE) 3,625 4.9 -30.9°
